AO-07 1 07530U 74089B 14211.80120610 -.00000022 00000-0 13613-3 0 274 2 07530 101.4754 192.2023 0011666 207.8798 270.9717 12.53605918816984 FO-29 1 24278U 96046B 14212.60938943 .00000024 00000-0 60004-4 0 4322 2 24278 098.5131 220.3395 0350717 182.2160 327.2770 13.53026600886678 SO-33 1 25509U 98061B 14212.56188017 .00000224 00000-0 31873-4 0 8051 2 25509 031.4318 268.9498 0349472 143.1819 003.7808 14.29564388823509 RS-22 1 27939U 03042A 14212.55277630 .00000361 00000-0 75380-4 0 7180 2 27939 097.8125 024.4999 0012795 332.0486 028.0034 14.65258722579225 HO-68 1 36122U 09072B 14212.72582991 -.00000043 00000-0 00000 0 0 8148 2 36122 100.2455 263.2393 0007807 134.3492 225.8255 13.16317048222299 AO-73 1 39444U 13066AE 14212.15035227 .00000924 00000-0 12959-3 0 2082 2 39444 097.7715 281.3054 0062927 099.9271 260.9115 14.78433154 35965 EO-79 1 40025U 14033R 14212.74936860 .00000673 00000-0 84768-4 0 1169 2 40025 097.9794 107.4666 0013282 147.2754 212.9356 14.85280463 6201 UO-11 1 14781U 84021B 14212.73952510 .00000620 00000-0 85333-4 0 5606 2 14781 097.8489 271.9910 0009274 045.0196 315.1767 14.81662838634565 AO-16 1 20439U 90005D 14212.80159694 .00000125 00000-0 62189-4 0 791 2 20439 098.5076 149.3012 0011310 033.8686 353.5781 14.32371514280873 LO-19 1 20442U 90005G 14211.79813786 .00000091 00000-0 49188-4 0 179 2 20442 098.4785 148.8397 0012093 025.6051 334.5729 14.32572355280920 AO-27 1 22825U 93061C 14212.83374545 .00000090 00000-0 52137-4 0 7277 2 22825 098.6641 158.6823 0008959 160.4859 225.9091 14.29732281 87161 IO-26 1 22826U 93061D 14212.81458200 .00000090 00000-0 52140-4 0 4830 2 22826 098.6585 158.8756 0009630 153.8322 206.3348 14.30033899 87297 GO-32 1 25397U 98043D 14211.81179808 .00000034 00000-0 33330-4 0 4056 2 25397 098.4719 168.1805 0001867 143.8698 273.9590 14.23452196834070 NO-44 1 26931U 01043C 14212.59340068 .00000025 00000-0 41595-4 0 6615 2 26931 067.0518 283.9468 0007063 281.0216 079.0090 14.30133229669954 SO-50 1 27607U 02058C 14212.73334199 .00000488 00000-0 93784-4 0 4626 2 27607 064.5565 096.5479 0053101 358.1152 001.9740 14.73839008624040 CO-55 1 27844U 03031E 14212.49351715 .00000141 00000-0 84285-4 0 9826 2 27844 098.6988 220.6270 0010692 143.0598 010.2163 14.21531420574879 CO-57 1 27848U 03031J 14212.77028249 .00000176 00000-0 10070-3 0 9237 2 27848 098.7082 220.6350 0010512 148.3989 265.2898 14.21215151574834 AO-51 1 28375U 04025K 14211.45323738 .00000074 00000-0 35076-4 0 8984 2 28375 098.2524 156.8966 0082447 220.8360 138.6633 14.41405870530130 CP3 1 31129U 07012N 14212.19723949 .00000379 00000-0 93552-4 0 8086 2 31129 097.9374 187.9599 0097308 233.2110 259.2366 14.54762946386439 CO-65 1 32785U 08021C 14212.21717015 .00000778 00000-0 96241-4 0 157 2 32785 097.6962 262.0614 0014525 050.0511 350.5497 14.85407664338569 PRISM 1 33493U 09002B 14212.81747604 .00001754 00000-0 18948-3 0 1554 2 33493 098.2516 030.3768 0016507 302.0298 057.9325 14.89656629298821 SOHLA-1 1 33496U 09002E 14211.94538829 .00000267 00000-0 51944-4 0 4158 2 33496 098.1747 332.9951 0007718 104.8526 034.4191 14.70844978295947 TISAT-1 1 36799U 10035E 14212.86946451 .00001198 00000-0 14392-3 0 4172 2 36799 098.0178 305.2064 0014196 169.3390 190.8129 14.85822201219354 STUDSAT 1 36801U 10035G 14211.98005382 .00009289 00000-0 80362-3 0 8619 2 36801 098.0381 313.2301 0010328 142.5801 277.1453 14.97360515219683 ALMASAT-1 1 38078U 12006B 14211.79835927 .00016503 31606-5 35067-3 0 962 2 38078 069.4695 313.9093 0588019 333.7433 154.8033 14.51993422127961 XATCOBEO 1 38082U 12006F 14212.86695302 .00311638 34343-4 10130-2 0 4534 2 38082 069.4303 187.9736 0147443 262.8812 179.5919 15.75128034131384 CUBEBUG-1 1 39153U 13018D 14212.77578978 .00000578 00000-0 87735-4 0 3439 2 39153 098.0418 292.9865 0017335 203.9473 156.0946 14.77801083 68140 ESTCUBE-1 1 39161U 13021C 14212.87401951 .00000450 00000-0 83183-4 0 3385 2 39161 098.0958 293.4407 0008376 250.7900 109.2403 14.70068027 66160 DUCHIFAT-1 1 40021U 14033M 14212.54418166 .00000765 00000-0 95172-4 0 1193 2 40021 097.9810 107.2783 0014637 149.9944 210.2133 14.85403849 6163 NANOSATCBR1 1 40024U 14033Q 14212.27730939 .00000768 00000-0 95712-4 0 1138 2 40024 097.9803 106.9952 0013238 148.5494 211.6535 14.85305170 6128 DTUSAT-2 1 40030U 14033W 14212.42279606 .00000713 00000-0 90220-4 0 1152 2 40030 097.9785 107.1099 0013019 142.3501 217.8638 14.84913745 6154 ANTELSAT 1 40034U 14033AA 14212.74072605 .00000706 00000-0 11913-3 0 1121 2 40034 097.9765 106.5325 0063063 064.9938 295.7845 14.71244879 6154 MET-2/21 1 22782U 93055A 14212.81937000 .00000083 00000-0 61540-4 0 1231 2 22782 082.5514 137.8978 0023342 137.6804 241.8557 13.83742912 56298 OKEAN-4 1 23317U 94066A 14212.14115865 .00000661 00000-0 73446-4 0 6024 2 23317 082.5378 026.7156 0019224 315.7723 155.7093 14.85599988 69634 NOAA-14 1 23455U 94089A 14212.44955811 .00000044 00000-0 46198-4 0 8423 2 23455 098.7770 295.0984 0008399 272.2778 195.3841 14.13980159 10205 NOAA-15 1 25338U 98030A 14212.49554784 .00000143 00000-0 79242-4 0 2783 2 25338 098.7550 206.2728 0010876 026.3125 129.5970 14.25449150843154 RESURS 1 25394U 98043A 14212.82335977 -.00000026 00000-0 69549-5 0 7165 2 25394 098.4165 175.3242 0002501 117.0740 272.0274 14.24395628834676 FENGYUN1 1 25730U 99025A 14212.83074807 .00000393 00000-0 23869-3 0 2055 2 25730 098.9146 173.6541 0024760 350.5401 039.2837 14.11978139783824 OKEAN-0 1 25860U 99039A 14212.79869193 .00000538 00000-0 86901-4 0 3171 2 25860 098.0465 176.4098 0000873 109.8678 295.5878 14.75325140808739 NOAA-16 1 26536U 00055A 14212.40790583 -.00000043 00000-0 88615-6 0 7752 2 26536 098.9874 272.9568 0011231 063.7389 296.4935 14.13031222714360 NOAA-17 1 27453U 02032A 14212.43658079 .00000081 00000-0 52262-4 0 6706 2 27453 098.3161 209.8229 0012417 049.7532 310.4732 14.24760111628988 NOAA-18 1 28654U 05018A 14212.46818159 .00000020 00000-0 36306-4 0 1773 2 28654 099.1517 192.8644 0015164 137.3989 331.2309 14.12044682473816 NOAA-19 1 33591U 09005A 14212.44300264 .00000047 00000-0 50189-4 0 3215 2 33591 098.9464 157.3533 0013910 359.7626 144.0222 14.11742659282234 HUBBLE 1 20580U 90037B 14212.08123550 .00001455 00000-0 86739-4 0 665 2 20580 028.4703 108.5523 0003245 035.6199 069.1495 15.05567770131330 ISS 1 25544U 98067A 14212.89740609 .00003954 00000-0 75941-4 0 8083 2 25544 051.6470 237.9674 0006323 315.9344 104.9033 15.50492143898263 CO-58 1 28895U 05043F 14212.76729131 .00000628 00000-0 13400-3 0 8323 2 28895 097.8330 052.3164 0016540 226.1896 133.7939 14.61947955466760 FALCON 1 30776U 07006E 14211.95862039 .00004466 00000-0 22493-3 0 9226 2 30776 035.4280 202.6538 0002327 289.7080 165.5349 15.16728952407382 MAST 1 31126U 07012K 14211.80501310 .00000323 00000-0 80661-4 0 1052 2 31126 097.9178 190.4341 0091424 217.4971 261.4966 14.55327396386735 CAPE1 1 31130U 07012P 14212.17023786 .00000398 00000-0 98024-4 0 1126 2 31130 097.9388 187.4888 0097856 234.7504 124.4508 14.54510571386204 COMPASS 1 32787U 08021E 14212.61555711 .00002007 00000-0 22366-3 0 9989 2 32787 097.6985 264.8721 0014254 041.0455 319.1832 14.88092857338797 AAUSAT2 1 32788U 08021F 14212.12782794 .00001954 00000-0 21408-3 0 9840 2 32788 097.6995 265.4396 0013658 040.9114 319.3125 14.88814662338783 DO-64 1 32789U 08021G 14212.78150078 .00004796 00000-0 45716-3 0 258 2 32789 097.7173 273.0110 0012000 023.7824 115.0704 14.93767959339157 CO-66 1 32791U 08021J 14211.67030200 .00001286 00000-0 15031-3 0 9798 2 32791 097.6980 262.6280 0015085 047.2555 312.9928 14.86713488338510 RS-30 1 32953U 08025A 14212.90075882 .00000010 00000-0 00000 0 0 1572 2 32953 082.5079 173.4103 0020619 059.2719 301.0389 12.43049496280810 METEOR-M 1 35865U 09049A 14212.69742009 -.00000023 00000-0 90201-5 0 7627 2 35865 098.5462 258.7536 0002387 349.4452 010.6658 14.21926108252661 RS-38 1 35869U 09049E 14212.75117767 .00000019 00000-0 27570-4 0 6772 2 35869 098.5398 258.5857 0003760 337.2515 161.0573 14.22219173252708 JUGNU 1 37839U 11058B 14211.78188123 .00000363 00000-0 52118-4 0 6644 2 37839 019.9622 350.7225 0019061 103.9751 044.1522 14.12322072144728 SRMSAT 1 37841U 11058D 14211.83894775 .00000339 00000-0 41929-4 0 6685 2 37841 019.9731 010.5743 0012081 042.8202 104.8277 14.10361604144537 RAX-2 1 37853U 11061D 14212.13690154 .00002583 00000-0 18344-3 0 8747 2 37853 101.7102 262.7564 0215071 289.5762 132.4493 14.89827257149202 AUBIESAT 1 37854U 11061E 14211.76006411 .00002803 00000-0 19226-3 0 8535 2 37854 101.7151 264.2149 0212831 287.5871 195.9520 14.91177719149202 HRBE 1 37855U 11061F 14212.77061457 .00003214 00000-0 22153-3 0 8641 2 37855 101.7149 265.0037 0214921 286.0779 166.8271 14.90477230149321 RS-39 1 38051U 11062C 14212.82207437 .00088705 00000-0 84934-3 0 7717 2 38051 051.6255 357.1587 0005666 332.5596 174.9498 15.65909205141094 E-STAR 1 38079U 12006C 14212.09832104 .00065860 44984-5 69698-3 0 9173 2 38079 069.4505 235.3202 0351608 291.1912 065.2046 15.14397609130094 GOLIAT 1 38085U 12006J 14212.53089827 .00068441 44840-5 77213-3 0 2348 2 38085 069.4525 242.3393 0376513 294.6563 061.5821 15.08040698129942 HORYU-2 1 38340U 12025D 14212.86665011 .00001209 00000-0 19784-3 0 9254 2 38340 098.2653 170.8302 0013412 036.2574 323.9580 14.72634875118379 RS-40 1 38735U 12041C 14212.57000106 .00000024 00000-0 10000-3 0 6361 2 38735 082.4755 259.8680 0017650 154.5451 205.6508 12.42561095 91091 PROITERES 1 38756U 12047B 14212.76061003 .00000555 00000-0 90344-4 0 648 2 38756 098.2282 301.7855 0011653 236.8764 123.1327 14.75018573101757 BEESAT-3 1 39134U 13015E 14212.55858252 .00002332 00000-0 15877-3 0 6606 2 39134 064.8767 358.0630 0031922 300.2506 059.5955 15.05643084 70346 BEESAT-2 1 39136U 13015G 14212.84062246 .00002595 00000-0 19270-3 0 6433 2 39136 064.8709 357.7934 0031167 299.7513 060.0513 15.04982634 70374 LO-75 1 39382U 13064C 14212.28655340 .00058918 00000-0 10241-2 0 3469 2 39382 040.4913 187.7596 0018685 203.5631 156.5491 15.49696844 38894 ZACUBE-1 1 39417U 13066B 14212.17196344 .00001062 00000-0 14856-3 0 3636 2 39417 097.7723 281.2783 0063472 099.8972 260.9427 14.78209379 37198 TRITON-1 1 39427U 13066M 14212.22796176 .00000682 00000-0 12162-3 0 2164 2 39427 097.7616 276.2578 0118839 110.0356 251.3716 14.65478534 36849 DELFIN3XT 1 39428U 13066N 14212.00827350 .00001098 00000-0 19615-3 0 2195 2 39428 097.7599 275.1504 0129621 113.1488 248.3453 14.63430376 36741 GOMX-1 1 39430U 13066Q 14212.74451613 .00000757 00000-0 15136-3 0 6890 2 39430 097.7538 273.3919 0157558 117.5652 244.1664 14.56911241 36709 MO-76 1 39436U 13066W 14211.73699891 .00006549 00000-0 66531-3 0 2825 2 39436 097.7770 284.6981 0027893 105.6406 254.7950 14.90857596 37368 LO-74 1 39440U 13066AA 14212.75896027 .00000825 00000-0 12835-3 0 2169 2 39440 097.7696 279.8314 0085301 101.5187 259.5642 14.73150554 37143 PUCPSAT-1 1 39442U 13066AC 14212.26788476 .00001196 00000-0 14072-3 0 2140 2 39442 097.7777 284.4858 0035785 100.0839 260.4461 14.86233180 36172 SHINAISAT 1 39572U 14009A 14212.63412162 .00039484 00000-0 28400-3 0 2117 2 39572 065.0068 248.2432 0020558 288.6767 071.2677 15.72933478 24096 OPUSAT 1 39575U 14009D 14205.03098383 .10394079 79053-5 15280-3 0 2959 2 39575 064.9843 263.3854 0017888 326.7083 036.3105 16.47207532 23119 TEIKYOSAT 1 39576U 14009E 14212.80022231 .00070218 00000-0 40579-3 0 2205 2 39576 065.0056 245.4369 0021066 298.9436 061.0127 15.77907076 24162 CO-77 1 39577U 14009F 14212.56066470 .00198063 21435-4 57181-3 0 2454 2 39577 065.0005 241.6319 0021283 299.0652 060.8418 15.92457935 24210 STARS-II 1 39579U 14009H 14116.06110564 .20186783 77451-5 52661-3 0 1329 2 39579 064.9886 219.0071 0013010 293.8065 069.6132 16.44611049 9028 SPROUT 1 39770U 14029E 14212.81149365 .00000101 00000-0 19115-4 0 858 2 39770 097.8744 309.2833 0010277 158.0556 202.1106 14.82664144 10151 POPSAT-HIP1 1 40028U 14033U 14212.88861032 .00001004 00000-0 12360-3 0 1229 2 40028 097.9814 107.6144 0015461 143.6331 216.5953 14.85123166 6212 EO-80 1 40032U 14033Y 14212.76032527 .00000753 00000-0 94880-4 0 1161 2 40032 097.9807 107.4533 0012686 140.0410 220.1773 14.84892614 6204 VELOX-1 1 40057U 14034E 14212.85744049 .00000824 00000-0 13331-3 0 1089 2 40057 098.2505 280.5627 0011940 172.7544 187.3834 14.73999288 4662 DAURIA DX 1 1 40071U 14037C 14212.85856468 .00000367 00000-0 56780-4 0 792 2 40071 098.4006 265.5110 0008751 175.3873 184.7398 14.79514939 3416 OBJECT F 1 40074U 14037F 14212.77755043 .00000792 00000-0 11135-3 0 812 2 40074 098.4017 265.4626 0005293 174.9046 185.2210 14.80384980 3408 OBJECT G 1 40075U 14037G 14212.77756993 .00000437 00000-0 64831-4 0 827 2 40075 098.4013 265.4605 0005403 192.8841 167.2221 14.80376191 3404 /EX
